Location: Newark
(48.5156°N, 1.8989°W)
Time: 04:38:06
(UTC+00:00)

Transit 4A - Pass Details

Date: 28 November 2019
Orbit: 870 x 975 km, 66.8° (Epoch: 12 December)

Event Time Altitude Azimuth Distance (km) Brightness Sun altitude
Exits shadow 06:44:35 - 280° (W) 2,633 9.6 -8.1°
Reaches altitude 10° 06:45:45 10° 269° (W) 2,527 9.6 -7.9°
Maximum altitude 06:46:33 10° 260° (W) 2,503 9.7 -7.8°
Drops below altitude 10° 06:47:22 10° 252° (WSW) 2,521 9.7 -7.6°
Sets 06:52:33 0° 213° (SSW) 3,445 10.8 -6.9°
